Location: Boncourt
(49.6160°N, 3.9448°E)
Time: 11:50:26
(UTC+00:00)

CSL-04 Rocket - Pass Details

Date: 09 February 2023
Orbit: 806 x 859 km, 98.8° (Epoch: 23 March)

Event Time Altitude Azimuth Distance (km) Brightness Sun altitude
Exits shadow 18:43:58 27° 119° (ESE) 1,529 4.6 -18.4°
Maximum altitude 18:46:23 44° 66° (ENE) 1,136 3.9 -18.8°
Drops below altitude 10° 18:51:32 10° 355° (N) 2,467 6.2 -19.6°
Sets 18:54:01 0° 350° (N) 3,414 7.0 -20.0°
